Location: G??boka
(50.1318°N, 20.1512°E)
Time: 11:37:59
(UTC+00:00)

Daily predictions for brighter satellites

Satellite Brightness Start Highest point End
(mag) Time Altitude Azimuth Time Altitude Azimuth Time Altitude Azimuth
Resurs 01 Rocket 1.8 18:04:25 10° SSE 18:08:43 56° ENE 18:13:05 10° N
DELTA 2 DEB (DPAF) 4.4 18:05:13 10° NNE 18:09:17 43° E 18:13:19 10° S
CZ-4B R/B 4.1 18:06:46 10° S 18:10:11 39° W 18:13:32 10° NNW
Cosmos 1300 Rocket 3.6 18:11:47 10° S 18:16:11 87° E 18:20:37 10° N
USA 234 3.5 18:12:19 10° SE 18:18:52 73° SW 18:25:26 10° WNW
USA 281 3.4 18:13:33 10° SE 18:20:00 61° NE 18:26:28 10° NNW
NOSS 3-1 (C) 3.1 18:18:26 10° SW 18:23:25 81° SE 18:29:29 10° NE
Cosmos 2344 4.4 18:17:07 10° WSW 18:24:16 52° NNW 18:31:50 10° NE
Cosmos 2227 Rocket 3.6 18:20:49 10° NNW 18:25:30 25° NE 18:30:08 10° E
Cosmos 2151 Rocket 4.4 18:21:38 10° SSE 18:25:31 32° E 18:29:28 10° NNE
ATLAS CENTAUR R/B 3.3 18:28:45 10° NNW 18:31:14 17° NNE 18:33:46 10° ENE
CSL-04 Debris 4.3 18:25:57 10° SSE 18:31:23 83° WSW 18:36:55 10° NNW
ATLAS 3B R/B 2.9 18:30:02 10° SSW 18:37:01 63° SE 18:44:30 10° NE
Cosmos 371 Rocket 3.3 18:33:05 10° NNW 18:37:53 66° ENE 18:42:31 11° SE
Cosmos 1697 Rocket 4.4 18:37:21 11° ESE 18:38:51 13° E 18:41:10 10° ENE
COSMOS 2455 3.5 18:33:55 10° NNW 18:39:42 44° NE 18:44:51 13° ESE
SL-4 R/B 1.8 18:36:13 10° W 18:39:53 70° N 18:43:07 12° E
CSL-04 Rocket 3.9 18:34:23 10° SSE 18:39:54 78° WSW 18:45:23 10° NNW
Iridium 2 4.1 18:37:54 10° NNE 18:40:31 28° ENE 18:42:18 16° SE
Cosmos 1777 Rocket 4.2 18:35:23 10° NNW 18:40:37 62° ENE 18:45:33 12° SE
Cosmos 304 Rocket 3.9 18:37:09 10° NNW 18:41:53 59° ENE 18:46:06 13° SE
Okean 2 Rocket 3.3 18:43:11 10° SSE 18:47:31 49° E 18:51:52 10° NNE
CZ-4C R/B 3.4 18:44:02 10° NW 18:50:28 49° NE 18:57:31 13° ESE
SPOT 5 3.4 18:46:55 12° SE 18:51:40 52° ENE 18:56:43 10° N
Cosmos 2297 Rocket 2.5 18:48:51 10° NNW 18:54:26 56° NE 18:58:47 17° SE
Cosmos 1503 Rocket 4.1 18:52:48 10° NNW 18:58:12 83° WSW 19:03:17 11° SSE
Cosmos 2369 Rocket 4.3 18:54:01 10° WSW 18:59:01 31° NW 19:04:00 10° NNE
Cosmos 405 Rocket 4.3 18:59:06 16° E 18:59:28 17° E 19:01:52 10° NE
Spot 2 Rocket 4.4 18:56:17 16° ESE 18:59:34 33° ENE 19:04:03 10° N
Cosmos 1354 Rocket 4.0 18:55:45 10° NNW 19:01:07 83° ENE 19:05:34 15° SSE
Cosmos 1656 4.0 18:56:28 10° S 19:01:41 43° ESE 19:06:52 10° NE
BlueWalker 3 2.4 18:59:11 10° SSW 19:02:45 38° SE 19:06:06 11° ENE
Terra 2.6 19:01:26 18° ESE 19:04:19 36° ENE 19:08:38 10° N
ATLAS 5 CENTAUR R/B 2.0 19:03:39 10° WSW 19:06:58 50° NW 19:10:45 10° NE
Cosmos 2098 Rocket 4.4 19:04:25 10° SSW 19:08:47 40° WNW 19:12:25 10° N
Cosmos 2219 4.5 19:04:03 10° NNW 19:08:57 29° NE 19:12:38 15° E
Iridium 4 Rocket 3.9 19:04:24 11° SSE 19:09:38 57° E 19:15:21 10° N
Cosmos 332 Rocket 4.1 19:05:35 10° NNW 19:10:21 52° ENE 19:13:17 22° SE
Cosmos 1455 Rocket 4.3 19:09:45 21° ESE 19:11:01 24° E 19:14:33 10° NE
Okean 1 Rocket 3.2 19:06:57 11° S 19:11:01 53° E 19:15:24 10° NNE
Sich 1 Rocket 3.5 19:06:38 10° S 19:11:03 83° E 19:15:32 10° NNE
USA 245 4.1 19:09:42 19° SE 19:13:05 50° ENE 19:17:13 10° N
Okean-O 3.0 19:11:08 10° S 19:15:31 65° WSW 19:19:55 10° NNW
NOSS 8 (F) 4.4 19:15:52 10° NW 19:18:55 70° NE 19:20:28 31° ESE
Ariane Rocket 3.4 19:16:23 22° SE 19:19:17 47° ENE 19:24:08 10° N
Cosmos 1763 Rocket 4.1 19:17:53 21° SSE 19:20:22 33° ESE 19:24:55 10° NE
CZ-4C R/B 3.0 19:17:18 10° NNE 19:20:45 78° WNW 19:24:06 10° SSW
Cosmos 2263 Rocket 3.6 19:16:18 10° NNW 19:20:57 25° NE 19:24:25 15° E
Nadezhda 3 Rocket 4.4 19:17:01 10° SSW 19:23:06 66° WNW 19:29:18 10° N
Cosmos 1437 Rocket 3.5 19:20:34 10° N 19:24:15 37° ENE 19:25:29 29° ESE
USA 267 3.6 19:18:05 10° ENE 19:24:35 68° NNW 19:31:04 10° WSW
Genesis I 3.7 19:21:39 10° NW 19:25:10 47° SW 19:26:55 25° S
Cosmos 44 3.7 19:21:12 10° SSW 19:26:21 47° ESE 19:31:27 10° NE
BREEZE-M R/B 2.3 19:25:13 10° W 19:27:34 41° SSW 19:27:40 40° SSW
Cosmos 990 Rocket 4.1 19:24:02 10° NNW 19:29:11 62° ENE 19:31:51 28° SE
Cosmos 1605 Rocket 4.0 19:23:39 10° N 19:30:04 72° ENE 19:34:28 21° SSE
Okean O Rocket 3.6 19:26:57 10° SSW 19:30:35 26° W 19:34:15 10° NW
Aureole 1 Rocket 2.9 19:31:23 10° N 19:34:11 35° ENE 19:34:29 34° ENE
Cosmos 540 Rocket 4.0 19:39:04 31° SE 19:40:16 35° ESE 19:44:54 10° NE
Resurs 01 Rocket 4.1 19:42:23 10° SW 19:45:31 19° W 19:48:41 10° NW
MOS 1 Rocket 3.6 19:46:11 35° ESE 19:47:19 44° ENE 19:51:31 10° N
Intercosmos 25 4.5 19:44:01 10° N 19:48:21 30° ENE 19:49:01 28° E
Cosmos 2058 3.3 19:46:07 10° N 19:49:58 42° ENE 19:50:33 39° E
CENTAUR R/B 3.5 19:43:55 10° NW 19:51:45 61° NE 19:57:39 23° ESE
Cosmos 468 Rocket 4.3 19:51:31 36° SE 19:52:44 42° ESE 19:57:39 10° NE
NOSS 3-1 (A) 3.8 19:48:37 10° WSW 19:53:41 58° NW 19:59:55 10° NE
ERS-1 Rocket 3.0 19:51:26 27° S 19:54:11 75° WSW 19:59:14 10° NNW
SPOT 3 Rocket 3.5 19:55:09 34° SSE 19:57:32 85° ENE 20:02:44 10° NNW
Cosmos 546 4.4 19:55:27 10° W 19:59:14 89° NNE 19:59:52 60° E
USA 229 DEB 3.4 19:56:13 10° SSW 20:02:22 76° SE 20:09:12 10° NE
USA 229 3.4 19:56:19 10° SSW 20:02:28 76° SE 20:09:17 10° NE
USA 281 4.5 19:59:02 10° SSW 20:04:50 33° WSW 20:10:42 10° NW
Landsat 5 3.5 20:02:39 10° NNE 20:06:49 53° E 20:06:58 52° ESE
Cosmos 1727 Rocket 4.0 20:04:27 33° SSE 20:07:13 61° E 20:13:21 10° NNE
Cosmos 2100 Rocket 4.2 20:00:58 10° N 20:07:13 55° ENE 20:09:32 37° SE
ATLAS CENTAUR R/B 1.1 20:05:51 10° NW 20:09:37 73° NE 20:09:58 66° E
Cosmos 2227 Rocket 2.2 20:04:29 10° NNW 20:10:12 80° WSW 20:12:21 40° SSE
Cosmos 1544 Rocket 4.2 20:12:25 37° E 20:12:25 37° E 20:16:05 10° NNE
Cosmos 1980 Rocket 3.0 20:13:32 32° E 20:13:32 32° E 20:18:07 10° NE
Cosmos 1892 Rocket 4.0 20:12:33 10° NNW 20:16:48 56° W 20:18:10 38° SSW
Cosmos 292 Rocket 3.8 20:12:49 10° NNW 20:17:34 68° ENE 20:18:28 54° ESE
H-2A R/B 4.1 20:18:14 20° ENE 20:18:14 20° ENE 20:20:52 10° NNE
SL-4 R/B 2.3 20:15:11 10° WNW 20:17:57 43° WSW 20:17:57 43° WSW
Cosmos 1697 Rocket 2.6 20:18:57 30° SSW 20:21:46 72° ESE 20:27:27 10° NNE
Cosmos 1937 Rocket 3.6 20:17:05 10° NNW 20:22:24 64° ENE 20:23:39 48° ESE
Cosmos 2360 4.2 20:17:18 10° SSW 20:22:59 87° WNW 20:28:44 10° NNE
COSMOS 2455 3.5 20:19:57 10° NW 20:25:42 47° WSW 20:27:59 32° SSW
Okean 1-7 Rocket 4.1 20:22:13 10° N 20:26:35 44° ENE 20:26:45 44° E
ATLAS 3B R/B 3.9 20:21:07 10° WSW 20:28:08 48° NNW 20:35:35 10° NE
MetOp-A 3.2 20:30:41 75° WSW 20:30:42 75° WSW 20:34:31 10° NNW
Cosmos 1602 Rocket 4.0 20:30:05 10° N 20:34:13 47° ENE 20:34:13 47° ENE
Cosmos 405 Rocket 3.6 20:33:26 36° WSW 20:34:21 44° WNW 20:37:57 10° N
Cosmos 1758 Rocket 3.8 20:30:36 10° N 20:34:59 54° ENE 20:35:00 54° ENE
Cosmos 1898 Rocket 3.4 20:29:44 10° NNW 20:35:00 80° WSW 20:36:04 57° S
Cosmos 2228 3.7 20:38:17 39° ENE 20:38:17 39° ENE 20:41:28 10° NNE
Cosmos 2297 Rocket 3.6 20:33:23 10° NW 20:38:10 29° WSW 20:40:36 21° SW
Spot 2 Rocket 4.4 20:36:25 28° SW 20:38:25 40° W 20:43:12 10° NNW
CZ-4C R/B 3.1 20:32:20 10° NW 20:39:22 65° SW 20:42:37 39° S
ARIANE 5 R/B 3.1 20:39:49 46° ENE 20:39:55 46° ENE 20:44:13 10° N
USA 81 4.1 20:38:46 44° SSW 20:40:26 76° W 20:45:44 10° N
BlueWalker 3 2.2 20:37:04 10° W 20:40:37 65° NW 20:40:37 65° NW
Terra 3.1 20:40:08 24° SW 20:41:57 32° W 20:46:12 10° NNW
Meteor 2-13 Rocket 4.3 20:43:01 46° S 20:45:03 85° E 20:51:14 10° N
Cosmos 2369 4.1 20:45:58 43° E 20:45:58 43° E 20:50:50 10° NE
Meteor 2-1 Rocket 4.0 20:45:48 56° S 20:47:03 85° ESE 20:52:36 10° NNE
Cosmos 1455 Rocket 4.2 20:46:46 27° WSW 20:48:34 40° WNW 20:52:43 10° N
Cosmos 1725 Rocket 4.0 20:43:01 10° N 20:49:11 65° ENE 20:50:29 52° SE
Cosmos 2233 Rocket 4.4 20:43:38 10° N 20:49:34 46° ENE 20:50:44 42° ESE
Cosmos 1459 Rocket 3.9 20:44:22 10° N 20:50:28 85° W 20:52:04 52° S
ATLAS 5 CENTAUR R/B 4.3 20:49:26 10° NW 20:51:52 16° NNW 20:54:34 10° NNE
Cosmos 2219 3.3 20:47:56 10° NNW 20:53:34 66° WSW 20:54:33 55° SSW
Cosmos 2061 Rocket 4.2 20:49:23 10° N 20:55:45 57° ENE 20:57:03 49° ESE
ALOS 2 4.1 20:58:36 25° ENE 20:58:36 25° ENE 21:02:07 10° N
Cosmos 858 Rocket 4.4 20:57:07 10° NNW 21:02:26 80° WSW 21:02:52 73° SSW
Cosmos 2263 Rocket 2.0 20:59:51 10° NNW 21:05:29 77° WSW 21:06:06 69° S
Cosmos 1862 4.2 21:02:37 10° N 21:05:30 42° NNE 21:05:30 42° NNE
USA 267 4.1 21:00:53 10° ENE 21:07:09 49° N 21:13:24 10° WNW
Cosmos 2082 3.6 21:06:18 10° NNW 21:11:57 71° WSW 21:12:29 66° SSW
Cosmos 2173 Rocket 4.4 21:08:58 10° NNW 21:15:12 56° W 21:17:01 42° SW
Cosmos 1271 Rocket 4.3 21:12:14 10° N 21:14:33 28° NNE 21:14:33 28° NNE
NOSS 3-2 (A) 4.0 21:10:11 10° NW 21:17:30 83° SW 21:19:59 51° SSE
Meteor 2-3 Rocket 3.9 21:13:14 10° NNW 21:18:51 63° W 21:19:41 56° SW
Cosmos 2322 Rocket 4.1 21:22:12 16° ENE 21:22:12 16° ENE 21:24:13 10° ENE
Cosmos 1606 4.0 21:23:39 36° NNW 21:23:39 36° NNW 21:26:08 10° N
Spot 4 4.0 21:30:18 64° NE 21:30:18 64° NE 21:34:45 10° N
Meteor 2-19 Rocket 4.4 21:32:04 66° ESE 21:32:25 67° E 21:38:29 10° NNE
Cosmos 1802 Rocket 4.5 21:31:37 10° NNW 21:37:40 52° W 21:38:59 44° SW
SL-16 R/B 3.2 21:41:08 34° E 21:41:08 34° E 21:45:05 10° NE
Cosmos 1844 4.4 21:35:03 10° NNW 21:40:36 47° NE 21:41:36 43° E
USA 238 DEB 4.2 21:35:03 10° NW 21:42:11 60° NE 21:45:34 34° ESE
USA 238 4.3 21:35:09 10° NW 21:42:17 60° NE 21:45:42 34° ESE
CENTAUR R/B 3.5 21:34:42 10° NW 21:42:43 54° WSW 21:44:48 46° SSW
Cosmos 1953 Rocket 4.3 21:38:42 10° N 21:42:01 49° NNE 21:42:01 49° NNE
Cosmos 841 Rocket 4.1 21:43:35 46° W 21:44:27 52° WNW 21:49:29 10° NNE
Cosmos 2016 Rocket 4.3 21:39:03 10° NNW 21:44:58 53° W 21:45:55 48° WSW
ATLAS CENTAUR R/B 4.0 21:44:42 10° WNW 21:45:04 11° W 21:45:04 11° W
Cosmos 1844 Rocket 2.9 21:44:32 10° NNW 21:50:06 58° NE 21:50:30 57° ENE
Cosmos 1125 Rocket 3.9 21:46:25 10° NNW 21:51:35 55° ENE 21:51:35 55° ENE
H-2A R/B 4.0 21:54:16 28° NW 21:54:16 28° NW 21:56:27 10° NNW
Cosmos 2227 Rocket 4.3 21:50:23 10° WNW 21:53:19 14° W 21:54:10 14° WSW
Cosmos 1980 Rocket 2.9 21:55:14 38° WSW 21:56:57 51° NW 22:02:28 10° NNE
Timation 2 Rocket 4.5 21:55:19 10° NNW 22:01:53 56° NE 22:03:23 46° E
Cosmos 2278 3.8 22:02:49 66° ENE 22:02:49 66° ENE 22:07:55 10° NNE
Cosmos 2151 4.0 22:03:40 10° NNW 22:06:35 43° NNW 22:06:35 43° NNW
ARIANE 5 R/B 4.5 22:17:17 23° WNW 22:17:17 23° WNW 22:20:09 10° NW
Cosmos 2237 4.1 22:29:24 82° NE 22:29:24 82° NE 22:34:53 10° NNE
H-2A R/B 3.2 22:28:03 10° NNE 22:30:49 40° NNE 22:30:49 40° NNE
Lacrosse 4 Rocket 2.9 22:33:41 34° N 22:33:41 34° N 22:36:18 10° NNE
Cosmos 2150 Rocket 4.2 22:28:00 10° NNW 22:32:46 66° NNE 22:32:46 66° NNE
NOSS 3-2 (C) 4.1 22:26:16 10° NW 22:33:35 62° SW 22:34:31 59° SSW
ALOS 2 4.0 22:35:59 33° NW 22:35:59 33° NW 22:38:52 10° NNW
Cosmos 2298 Rocket 4.1 22:31:39 10° NNW 22:36:37 72° NNE 22:36:37 72° NNE
Cosmos 1464 Rocket 3.9 22:38:13 10° N 22:44:37 82° W 22:44:59 78° SW
Cosmos-2242 4.2 22:46:33 38° NNE 22:46:33 38° NNE 22:49:17 10° NNE
Cosmos 2058 Rocket 4.1 22:47:28 42° NNW 22:47:28 42° NNW 22:50:38 10° N
Cosmos 2263 Rocket 4.3 22:45:48 10° WNW 22:47:47 13° W 22:47:47 13° W
USA 267 3.6 22:43:13 10° E 22:49:40 62° NNE 22:56:07 10° WNW
Cosmos 2360 Rocket 2.4 22:51:06 60° E 22:51:06 60° E 22:56:06 10° NE
Cosmos 1867 4.3 22:52:55 10° NW 22:58:17 49° NE 22:59:55 37° E
Meteor 2-21 4.3 22:58:06 77° WSW 22:58:26 80° W 23:04:41 10° N
Meteor 2-21 Rocket 4.3 22:59:01 77° SE 22:59:18 79° E 23:05:32 10° NNE
Aureole 3 Rocket 4.2 22:55:02 10° N 22:58:11 38° NNE 22:58:11 38° NNE
Meteor 1-20 Rocket 4.3 22:53:51 10° NNW 22:59:08 65° WNW 22:59:08 65° WNW
Cosmos 1570 Rocket 4.2 23:02:43 65° NW 23:02:43 65° NW 23:07:38 10° NNE
Cosmos 2333 Rocket 2.3 23:03:47 65° E 23:03:47 65° E 23:08:58 10° NNE
Cosmos 2322 Rocket 2.1 23:03:59 82° NNW 23:03:59 82° NNW 23:09:29 10° NNE
Cosmos 2278 Rocket 3.9 22:59:30 10° NNW 23:04:26 29° NE 23:09:02 11° ESE
Lacrosse 5 2.5 23:05:57 49° ENE 23:05:57 49° ENE 23:09:44 10° ENE
Cosmos 2219 Rocket 2.9 23:05:42 43° E 23:05:42 43° E 23:10:25 10° NE
Cosmos 2034 Rocket 3.8 23:00:33 10° N 23:06:46 81° W 23:07:00 79° SW
Meteor 1-25 Rocket 4.4 23:05:53 10° NNW 23:11:03 62° WNW 23:11:03 62° WNW
USA 32 4.1 23:12:06 73° NE 23:12:06 73° NE 23:16:59 10° N
Cosmos 2221 4.0 23:13:29 30° ENE 23:13:29 30° ENE 23:16:25 10° NNE
CZ-2D R/B 4.3 23:10:58 10° NE 23:13:47 14° E 23:15:10 13° ESE
Geosat 4.1 23:20:32 67° NW 23:20:32 67° NW 23:24:55 10° NNW
Cosmos 1782 4.3 23:24:05 33° N 23:24:05 33° N 23:26:23 10° N
SL-16 R/B 2.9 23:22:58 41° W 23:23:55 45° NW 23:29:22 10° NNE
Cosmos 1634 Rocket 4.0 23:21:21 10° N 23:27:43 80° E 23:28:37 66° SE
USA 238 DEB 4.2 23:26:10 10° NW 23:32:58 47° WSW 23:32:58 47° WSW
USA 238 4.2 23:26:16 10° NW 23:33:05 47° WSW 23:33:05 47° WSW
Cosmos 1844 Rocket 4.1 23:28:59 10° NW 23:32:09 24° WNW 23:32:09 24° WNW
IDEFIX/ARIANE 42P 4.0 23:34:37 10° NE 23:39:00 27° E 23:39:49 26° ESE
Resurs 1-4 Rocket 3.7 23:35:09 10° NE 23:39:20 23° E 23:40:30 21° ESE
Cosmos 158 Rocket 4.3 23:41:25 52° NW 23:41:25 52° NW 23:46:13 10° NNE
Cosmos 1943 Rocket 3.8 23:36:55 10° NNW 23:41:58 31° NE 23:46:59 10° ESE
Gbstr 26 Del rocket 4.5 23:49:29 28° E 23:49:29 28° E 23:51:27 10° ENE
NOSS 2-2 (E) 4.0 23:46:56 10° NW 23:51:06 69° NE 23:52:11 52° ESE
Cosmos 1766 Rocket 4.0 23:47:53 10° N 23:51:19 56° NNW 23:51:19 56° NNW
Cosmos 1743 4.0 23:51:09 10° N 23:53:28 36° N 23:53:28 36° N
